Flag for U.S.A. Weather past 2 weeks in Syracuse, New York, U.S.A.

Now
39 °F

Mostly cloudy.


Feels Like: 34 °F
Forecast: 35 / 51 °F
Wind: 8 mph from Northwest

Location: Syracuse Hancock International Airport


UV Index: 5 (Moderate)

Visibility: 10 mi


Pressure: 30.37 "Hg

Humidity: 81%

Dew point: 34 °F

Location of SyracuseLocation

Historic Weather in Syracuse

°F

Syracuse temperature yesterday

Maximum temperature yesterday: 61 °F (at 4:54 PM)
Minimum temperature yesterday: 36 °F (at 5:54 AM)
Average temperature yesterday: 48 °F

Past Weeks' High & Low Weather Summary

 TemperatureHumidityPressure
High82 °F (Apr 13, 4:54 PM)100% (Apr 8, 12:54 AM)30.67 "Hg (Apr 8, 12:54 AM)
Low22 °F (Apr 16, 6:54 AM)23% (Apr 10, 2:54 PM)29.27 "Hg (Apr 8, 9:54 AM)
Average46 °F65%29.98 "Hg
* Reported Apr 4 7:54 AM — Apr 19 7:54 AM, Syracuse, Weather by CustomWeather, © 2014

Note: Actual official high and low records may vary slightly from our data, if they occured in-between our weather recording intervals... More about our weather records

Advertising

Historic Weather Conditions — Data for Previous 24 hours

 ConditionsComfort  
Time TempWeatherWind HumidityBarometerVisibility
7:54 AM
Apr 19
39 °FScattered clouds.9 mph76%30.34 "Hg10 mi
6:54 AM36 °FPassing clouds.8 mph79%30.32 "Hg10 mi
5:54 AM36 °FPassing clouds.7 mph82%30.30 "Hg10 mi
4:54 AM39 °FPassing clouds.9 mph76%30.27 "Hg10 mi
3:54 AM41 °FPassing clouds.9 mph74%30.25 "Hg10 mi
2:54 AM43 °FPartly cloudy.8 mph82%30.25 "Hg10 mi
1:54 AM45 °FOvercast.9 mph80%30.25 "Hg10 mi
12:54 AM45 °FOvercast.9 mph80%30.25 "Hg10 mi
11:54 PM
Apr 18
45 °FMostly cloudy.8 mph82%30.23 "Hg10 mi
10:54 PM47 °FLight rain. Mostly cloudy.No wind80%30.22 "Hg10 mi
9:54 PM49 °FLight rain. Mostly cloudy.5 mph69%30.22 "Hg10 mi
8:54 PM52 °FLight rain. Overcast.8 mph49%30.21 "Hg10 mi
7:54 PM57 °FLight rain. Mostly cloudy.7 mph42%30.17 "Hg10 mi
6:54 PM59 °FPartly sunny.5 mph38%30.16 "Hg10 mi
5:54 PM60 °FScattered clouds.5 mph36%30.16 "Hg10 mi
4:54 PM61 °FScattered clouds.8 mph35%30.19 "Hg10 mi
3:54 PM60 °FPartly sunny.9 mph35%30.21 "Hg10 mi
2:54 PM58 °FBroken clouds.No wind36%30.24 "Hg10 mi
1:54 PM56 °FMostly cloudy.7 mph40%30.27 "Hg10 mi
12:54 PM54 °FOvercast.9 mph41%30.29 "Hg10 mi
11:54 AM52 °FSunny.8 mph45%30.32 "Hg10 mi
10:54 AM49 °FMore clouds than sun.10 mph48%30.34 "Hg10 mi
9:54 AM47 °FMore clouds than sun.9 mph48%30.37 "Hg10 mi
Weather by CustomWeather, © 2014

See weather overview